Regional Weather Roundup
Issued by NWS Northern Indiana

Home | Current Version | Previous Version | Graphics & Text | Print | Product List | Glossary On
Versions: 1 2 3 4 5 6 7 8 9 10 11 12 13 14 15 16 17 18 19 20 21 22 23 24 25 26 27 28 29 30 31 32 33 34 35 36 37 38 39 40 41 42 43 44 45 46 47 48 49 50
789
ASUS43 KIWX 240410
RWRIWX

KIWX WEATHER ROUNDUP
NATIONAL WEATHER SERVICE NORTHERN INDIANA
1100 PM EST FRI FEB 23 2018

NOTE: "FAIR" INDICATES FEW OR NO CLOUDS BELOW 12,000 FEET WITH NO
SIGNIFICANT WEATHER AND/OR OBSTRUCTIONS TO VISIBILITY.

* THESE STATIONS ARE NOT UNDER NWS QUALITY CONTROL. THEY ALSO MAY NOT
  REPORT WEATHER SUCH AS PRECIPITATION OR FOG.

INZ001>027-240500-
NORTHERN INDIANA

CITY           SKY/WX    TMP DP  RH WIND       PRES   REMARKS
GARY*          CLOUDY    39  34  81 W5        30.27R
VALPARAISO     CLOUDY    38  34  85 W3        30.27R
MICHIGAN CITY* CLOUDY    36  34  93 CALM      30.27S
LAPORTE*       CLOUDY    37  33  87 CALM      30.27S
SOUTH BEND     CLOUDY    36  32  85 NW7       30.26S
GOSHEN         CLOUDY    38  35  89 NW9       30.25R
MONTICELLO*    CLOUDY    38  37  95 NW7       30.25S
LOGANSPORT*    CLOUDY    37  36  93 W5        30.26S
ROCHESTER*     CLOUDY    41  39  93 N7        30.25F
WARSAW*        CLOUDY    37  37 100 N7        30.25S
AUBURN*        CLOUDY    41  37  87 W7        30.24F
FORT WAYNE     CLOUDY    43  40  89 W7        30.23F
HUNTINGTON*    CLOUDY    40  39  97 W7        30.23F
PERU/GRISSOM   CLOUDY    40  40 100 W7        30.23F
MARION*        CLOUDY    42  40  95 CALM      30.24F

$$
INZ028>050-240500-
CENTRAL INDIANA

CITY           SKY/WX    TMP DP  RH WIND       PRES   REMARKS
LAFAYETTE      CLOUDY    39  38  96 NW5       30.25F
KOKOMO*        CLOUDY    41  40  96 NW7       30.25F FOG
MUNCIE*        CLOUDY    45  42  89 NW8       30.23F
INDIANAPOLIS   CLOUDY    45  42  89 N10       30.21F

$$
MIZ043>046-050>051-056>058-064>065-071>073-077>080-240500-
SOUTHWEST LOWER MICHIGAN

CITY           SKY/WX    TMP DP  RH WIND       PRES   REMARKS
BATTLE CREEK   CLOUDY    36  32  85 NW7       30.24S
BENTON HARBOR  CLOUDY    37  32  82 W5        30.26S
COLDWATER*     CLOUDY    37  37 100 NW10      30.23S
HILLSDALE*     CLOUDY    36  34  93 W8        30.21R
HOLLAND        CLOUDY    37  31  78 NW7       30.25S
GRAND RAPIDS   CLOUDY    37  31  78 W13G20    30.23S
KALAMAZOO      CLOUDY    37  32  82 NW7       30.25S
STURGIS*       CLOUDY    38  36  89 NW8       30.24R
THREE RIVERS*  CLOUDY    38  34  85 NW7       30.25R

$$
OHZ001>008-015>018-024>025-240500-
NORTHWEST OHIO

CITY           SKY/WX    TMP DP  RH WIND       PRES   REMARKS
WAUSEON*       CLOUDY    43  43 100 NW12      30.23R
DEFIANCE       CLOUDY    43  39  86 W5        30.23S
FINDLAY        CLOUDY    47  41  80 W10       30.22R
TOLEDO EXPRESS CLOUDY    44  43  96 W10       30.22R
TOLEDO METCALF CLOUDY    46  41  82 W13       30.22S
LIMA           CLOUDY    46  44  93 NW8       30.22R

$$
AND FOR LAKE MICHIGAN COASTAL AND OPEN LAKE BUOY OBSERVATIONS

STATION/POSITION TEMP    WIND        PRES    VSBY  WAVE
                 AIR SEA DIR/SP/G                  HT/PER
                 (F)     (DEG/KT/KT) (MB)    (MI)  (FT/S)
CALUMET HARBOR    38     220/  3/  5 1024.2R
MICHIGAN CITY     36     230/  6/  6   N/A
BURNS HARBOR      36     240/  4/  4 1025.4
SAINT JOSEPH      35     210/  3/  4 1024.7

$$
&&




USA.gov is the U.S. government's official web portal to all federal, state and local government web resources and services.